830  
ASUS45 KCYS 241110  
RWRWY  
 
WYOMING REGIONAL WEATHER ROUNDUP  
NATIONAL WEATHER SERVICE CHEYENNE WY  
400 AM MST WED JAN 24 2018  
 
NOTE: "FAIR" INDICATES FEW OR NO CLOUDS BELOW 12,000 FEET  
WITH NO SIGNIFICANT WEATHER AND/OR S TO VISIBILITY
.  
 
WYZ001-241200-  
YELLOWSTONE NATIONAL PARK  
 
CITY SKY/WX TMP DP RH WIND PRES REMARKS
 
LK YELLOWSTONE N/A 13 10 88 CALM 30.17F  
W YELLOWSTONE NOT AVBL  
 

 
WYZ002>013-054>058-071-098>099-241200-  
NORTHERN WYOMING  
 
CITY SKY/WX TMP DP RH WIND PRES REMARKS
 
JACKSON MOCLDY 7 3 84 N10 30.22F WCI -8  
CODY FAIR 37 13 37 W17G32 30.02S WCI 27  
GREYBULL FAIR 6 2 83 CALM 30.10F  
WORLAND FAIR 0 -2 91 VRB6 30.07F WCI -12  
SHERIDAN FAIR 14 9 80 SE5 29.97F WCI 6  
BUFFALO FAIR 27 7 42 N8 29.96F WCI 19  
GILLETTE FAIR 26 16 65 SW17 29.98F WCI 13  
HULETT FAIR 27 14 59 SW8 30.01F WCI 18  
NEWCASTLE FAIR 14 9 79 CALM 30.10S  
 

 
WYZ014>020-022>026-101>103-241200-  
CENTRAL WYOMING  
 
CITY SKY/WX TMP DP RH WIND PRES REMARKS
 
BIG PINEY FAIR 1 -3 83 CALM 30.24F  
PINEDALE FAIR 0 -6 78 NW8 30.24S WCI -15  
DUBOIS FAIR 23 9 54 N22G31 30.07F WCI 8  
LANDER FAIR 11 4 73 W6 30.09F WCI 1  
RIVERTON FAIR 11 5 77 SW8 30.10F WCI -1  
CASPER FLURRIES 26 17 68 SW26G36 30.09F WCI 10  
DOUGLAS FAIR 12 7 80 NW6 30.07F WCI 3  
 

 
WYZ021-027>030-104>119-241200-  
SOUTHERN WYOMING  
 
CITY SKY/WX TMP DP RH WIND PRES REMARKS
 
EVANSTON FAIR 17 11 77 SW7 30.23F WCI 8  
ROCK SPRINGS FAIR 11 5 77 S6 30.24F WCI 1  
DIXON N/A 3 -1 83 CALM 30.34R  
RAWLINS FAIR 24 13 62 S9 30.22R WCI 14  
SARATOGA FAIR 19 10 68 SE6 30.23S WCI 11  
LARAMIE FAIR 22 10 60 SW28 30.14F WCI 4  
CHEYENNE FAIR 26 11 52 SW17G24 30.13F WCI 13  
TORRINGTON FAIR 7 4 87 NE9 30.13F WCI -7  
 

 
 
 
CLICK HERE TO GO TO PREVIOUS BULLETINS.

The Nexlab WY Page Main Text Page